Location: *
(33.6842°N, 117.7925°W)
Time: 02:35:20
(UTC+00:00)

USA 238 - Pass Details

Date: 21 October 2019
Orbit: 1026 x 1186 km, 63.4° (Epoch: 11 November)

Event Time Altitude Azimuth Distance (km) Brightness Sun altitude
Exits shadow 12:23:25 34° 263° (W) 1,813 4.3 -20.9°
Maximum altitude 12:24:17 35° 249° (WSW) 1,784 4.4 -20.7°
Drops below altitude 10° 12:30:53 10° 186° (S) 3,097 6.1 -19.4°
Sets 12:33:52 0° 178° (S) 4,061 6.8 -18.8°
